{"data":{"norad_id":52604,"intl_designator":"2022-052G","name":"STARLINK-4013","alt_names":[],"object_type":"PAYLOAD","status":"ACTIVE","operator":null,"country":"US","launch_date":"2022-05-14","launch_site_code":"AFETR","launch_vehicle":null,"mission":null,"orbit_class":"UNKNOWN","rcs_meters":null,"size_class":null,"mass_kg":null,"dimensions":null,"purposes":["comms"],"wikipedia_slug":null,"has_3d_model":false,"image_url":null,"decayed_at":null,"tle_current":{"epoch":"2026-05-24T19:57:55.104192Z","epoch_age_seconds":82734,"freshness":"FRESH","line1":"1 52604U 22052G   26144.83188778 -.00001005  00000+0 -45081-4 0  9994","line2":"2 52604  53.2141 297.3016 0001482  89.6245 270.4917 15.08840124222359","mean_motion":15.08840124,"eccentricity":0.0001482,"inclination_deg":53.2141,"raan_deg":297.3016,"arg_perigee_deg":89.6245,"mean_anomaly_deg":270.4917,"bstar":-4.5081e-5,"rev_number":22235,"period_min":95.437546834485,"perigee_km":538.71778012826,"apogee_km":540.76823976321,"semimajor_km":6917.8800099457,"source":"CELESTRAK","updated_at":"2026-05-25T13:38:17.197721Z"}}}